Previsão horária em Juszczyna

Hoje, 14 Junho, Segunda-feira

Tempo Temperatura Precipitação Vento Pressão Humidade
00:00 +9°C° 0 mm 1 m/s 723 mmHg 94%
01:00 +9°C° 0 mm 1 m/s 723 mmHg 95%
02:00 +9°C° 0 mm 1 m/s 723 mmHg 95%
03:00 +10°C° 0 mm 1 m/s 723 mmHg 96%
04:00 +10°C° 0 mm 1 m/s 723 mmHg 96%
05:00 +10°C° 0 mm 1 m/s 723 mmHg 94%
06:00 +11°C° 0 mm 1 m/s 723 mmHg 93%
07:00 +10°C° 0 mm 2 m/s 723 mmHg 91%
08:00 +12°C° 0.1 mm 2 m/s 723 mmHg 86%
09:00 +13°C° 0.1 mm 2 m/s 723 mmHg 81%
10:00 +14°C° 0.1 mm 2 m/s 723 mmHg 75%
11:00 +15°C° 0.1 mm 2 m/s 723 mmHg 69%
12:00 +16°C° 0.1 mm 2 m/s 723 mmHg 62%
13:00 +18°C° 0.1 mm 2 m/s 723 mmHg 55%
14:00 +18°C° 0 mm 2 m/s 722 mmHg 53%
15:00 +18°C° 0 mm 2 m/s 722 mmHg 51%
16:00 +19°C° 0 mm 2 m/s 722 mmHg 49%
17:00 +17°C° 0 mm 2 m/s 722 mmHg 58%
18:00 +16°C° 0 mm 1 m/s 721 mmHg 66%
19:00 +15°C° 0 mm 1 m/s 721 mmHg 74%
20:00 +13°C° 0 mm 1 m/s 721 mmHg 77%
21:00 +12°C° 0 mm 1 m/s 722 mmHg 81%
22:00 +11°C° 0 mm 1 m/s 722 mmHg 84%
23:00 +10°C° 0 mm 1 m/s 722 mmHg 85%

Amanhã, 15 Junho, Terça-feira

Tempo Temperatura Precipitação Vento Pressão Humidade
00:00 +10°C° 0 mm 1 m/s 721 mmHg 86%
01:00 +10°C° 0 mm 1 m/s 721 mmHg 86%
02:00 +10°C° 0 mm 1 m/s 721 mmHg 87%
03:00 +9°C° 0 mm 1 m/s 721 mmHg 87%
04:00 +9°C° 0 mm 1 m/s 721 mmHg 88%
05:00 +12°C° 0 mm 1 m/s 721 mmHg 80%
06:00 +13°C° 0 mm 0 m/s 721 mmHg 72%
07:00 +15°C° 0 mm 0 m/s 721 mmHg 64%
08:00 +17°C° 0 mm 0 m/s 721 mmHg 58%
09:00 +20°C° 0 mm 1 m/s 721 mmHg 52%
10:00 +22°C° 0 mm 1 m/s 721 mmHg 46%
11:00 +22°C° 0 mm 1 m/s 721 mmHg 44%
12:00 +23°C° 0 mm 1 m/s 721 mmHg 42%
13:00 +23°C° 0 mm 2 m/s 721 mmHg 40%
14:00 +23°C° 0 mm 2 m/s 721 mmHg 42%
15:00 +23°C° 0 mm 2 m/s 721 mmHg 44%
16:00 +23°C° 0 mm 1 m/s 720 mmHg 46%
17:00 +21°C° 0 mm 1 m/s 720 mmHg 55%
18:00 +19°C° 0 mm 1 m/s 720 mmHg 63%
19:00 +18°C° 0 mm 1 m/s 720 mmHg 72%
20:00 +16°C° 0 mm 1 m/s 720 mmHg 71%
21:00 +16°C° 0 mm 1 m/s 720 mmHg 69%
22:00 +15°C° 0 mm 1 m/s 720 mmHg 68%
23:00 +15°C° 0 mm 1 m/s 720 mmHg 69%

Depois de amanhã, 16 Junho, Quarta-feira

Tempo Temperatura Precipitação Vento Pressão Humidade
00:00 +14°C° 0 mm 1 m/s 720 mmHg 70%
01:00 +14°C° 0 mm 1 m/s 720 mmHg 71%
02:00 +14°C° 0 mm 1 m/s 720 mmHg 73%
03:00 +13°C° 0 mm 1 m/s 720 mmHg 75%
04:00 +12°C° 0 mm 0 m/s 720 mmHg 77%
05:00 +15°C° 0 mm 1 m/s 720 mmHg 72%
06:00 +18°C° 0 mm 1 m/s 721 mmHg 68%
07:00 +20°C° 0 mm 1 m/s 721 mmHg 63%
08:00 +21°C° 0 mm 1 m/s 721 mmHg 60%
09:00 +22°C° 0 mm 1 m/s 721 mmHg 58%
10:00 +24°C° 0 mm 2 m/s 721 mmHg 55%
11:00 +24°C° 0.1 mm 2 m/s 721 mmHg 55%
12:00 +25°C° 0.1 mm 2 m/s 721 mmHg 54%
13:00 +25°C° 0.1 mm 2 m/s 721 mmHg 54%
14:00 +25°C° 0.1 mm 3 m/s 721 mmHg 57%
15:00 +24°C° 0.1 mm 3 m/s 721 mmHg 60%
16:00 +24°C° 0.1 mm 3 m/s 721 mmHg 63%
17:00 +23°C° 0.1 mm 2 m/s 721 mmHg 72%
18:00 +20°C° 0.1 mm 2 m/s 721 mmHg 80%
19:00 +19°C° 0.1 mm 2 m/s 721 mmHg 89%
20:00 +19°C° 0 mm 1 m/s 721 mmHg 91%
21:00 +18°C° 0 mm 1 m/s 721 mmHg 93%
22:00 +16°C° 0 mm 1 m/s 721 mmHg 95%
23:00 +15°C° 0 mm 1 m/s 721 mmHg 96%

17 Junho, Quinta-feira

Tempo Temperatura Precipitação Vento Pressão Humidade
00:00 +15°C° 0 mm 1 m/s 721 mmHg 96%
01:00 +15°C° 0 mm 1 m/s 721 mmHg 96%
02:00 +15°C° 0 mm 1 m/s 721 mmHg 95%
03:00 +14°C° 0 mm 1 m/s 721 mmHg 95%
04:00 +14°C° 0 mm 1 m/s 721 mmHg 95%
05:00 +16°C° 0 mm 1 m/s 721 mmHg 89%
06:00 +19°C° 0 mm 1 m/s 721 mmHg 83%
07:00 +21°C° 0 mm 1 m/s 722 mmHg 78%
08:00 +23°C° 0 mm 1 m/s 722 mmHg 69%
09:00 +25°C° 0 mm 1 m/s 722 mmHg 61%
10:00 +26°C° 0 mm 1 m/s 722 mmHg 53%
11:00 +27°C° 0 mm 2 m/s 722 mmHg 51%
12:00 +28°C° 0 mm 2 m/s 722 mmHg 49%
13:00 +28°C° 0 mm 2 m/s 722 mmHg 47%
14:00 +28°C° 0 mm 2 m/s 722 mmHg 52%
15:00 +27°C° 0 mm 2 m/s 721 mmHg 58%
16:00 +26°C° 0 mm 2 m/s 721 mmHg 63%
17:00 +25°C° 0 mm 2 m/s 721 mmHg 70%
18:00 +23°C° 0 mm 2 m/s 721 mmHg 76%
19:00 +21°C° 0 mm 2 m/s 721 mmHg 82%
20:00 +20°C° 0 mm 2 m/s 721 mmHg 85%
21:00 +19°C° 0 mm 2 m/s 721 mmHg 88%
22:00 +18°C° 0 mm 2 m/s 721 mmHg 91%
23:00 +17°C° 0 mm 2 m/s 721 mmHg 92%

18 Junho, Sexta-feira

Tempo Temperatura Precipitação Vento Pressão Humidade
00:00 +18°C° 0 mm 1 m/s 721 mmHg 92%
01:00 +16°C° 0 mm 1 m/s 721 mmHg 92%
02:00 +16°C° 0 mm 1 m/s 721 mmHg 92%
03:00 +16°C° 0 mm 1 m/s 721 mmHg 92%
04:00 +16°C° 0 mm 1 m/s 720 mmHg 91%
05:00 +19°C° 0 mm 1 m/s 721 mmHg 84%
06:00 +21°C° 0 mm 1 m/s 721 mmHg 77%
07:00 +23°C° 0 mm 1 m/s 721 mmHg 69%
08:00 +25°C° 0 mm 1 m/s 721 mmHg 63%
09:00 +26°C° 0 mm 1 m/s 721 mmHg 56%
10:00 +28°C° 0 mm 1 m/s 721 mmHg 50%
11:00 +29°C° 0 mm 2 m/s 721 mmHg 48%
12:00 +30°C° 0 mm 2 m/s 721 mmHg 46%
13:00 +31°C° 0 mm 2 m/s 721 mmHg 44%
14:00 +29°C° 0.2 mm 2 m/s 721 mmHg 52%
15:00 +28°C° 0.2 mm 2 m/s 720 mmHg 59%
16:00 +27°C° 0.2 mm 2 m/s 720 mmHg 67%
17:00 +26°C° 0.1 mm 1 m/s 720 mmHg 73%
18:00 +25°C° 0.1 mm 1 m/s 720 mmHg 78%
19:00 +24°C° 0.1 mm 1 m/s 720 mmHg 84%
20:00 +23°C° 0 mm 1 m/s 720 mmHg 86%
21:00 +22°C° 0 mm 1 m/s 721 mmHg 88%
22:00 +21°C° 0 mm 1 m/s 721 mmHg 90%
23:00 +20°C° 0 mm 1 m/s 721 mmHg 90%

19 Junho, Sábado

Tempo Temperatura Precipitação Vento Pressão Humidade
00:00 +20°C° 0 mm 1 m/s 721 mmHg 90%
01:00 +19°C° 0 mm 1 m/s 721 mmHg 90%
02:00 +19°C° 0 mm 1 m/s 721 mmHg 90%
03:00 +19°C° 0 mm 1 m/s 721 mmHg 90%
04:00 +19°C° 0 mm 1 m/s 721 mmHg 90%
05:00 +21°C° 0 mm 1 m/s 721 mmHg 83%
06:00 +21°C° 0 mm 0 m/s 722 mmHg 77%
07:00 +23°C° 0 mm 0 m/s 722 mmHg 71%
08:00 +26°C° 0.1 mm 1 m/s 722 mmHg 67%
09:00 +27°C° 0.1 mm 1 m/s 722 mmHg 63%
10:00 +28°C° 0.1 mm 1 m/s 722 mmHg 60%
11:00 +29°C° 0.2 mm 2 m/s 722 mmHg 57%
12:00 +29°C° 0.2 mm 2 m/s 722 mmHg 55%
13:00 +30°C° 0.2 mm 2 m/s 722 mmHg 52%
14:00 +30°C° 0 mm 2 m/s 722 mmHg 53%
15:00 +30°C° 0 mm 2 m/s 721 mmHg 53%
16:00 +30°C° 0 mm 2 m/s 721 mmHg 54%
17:00 +28°C° 0.3 mm 2 m/s 721 mmHg 64%
18:00 +26°C° 0.3 mm 2 m/s 721 mmHg 74%
19:00 +24°C° 0.3 mm 1 m/s 721 mmHg 84%
20:00 +23°C° 0.1 mm 1 m/s 721 mmHg 87%
21:00 +21°C° 0.1 mm 1 m/s 721 mmHg 89%
22:00 +19°C° 0.1 mm 2 m/s 721 mmHg 92%
23:00 +19°C° 0 mm 2 m/s 721 mmHg 92%
Mostrar mais

Necessitamos do seu Consentimento

A Meteoprog e os seus Fornecedores de Serviços podem armazenar e aceder a dados pessoais como cookies, identificadores do dispositivo ou outras tecnologias semelhantes existentes no seu dispositivo e processar estes dados para personalizar conteúdos e anúncios, assim como funcionalidades nas redes sociais e análise de tráfego.

  • Armazenar e/ou aceder a informações no seu dispositivo

    Os cookies, identificadores do dispositivo ou outras informações podem ser armazenados ou acedidos no seu dispositivo, para os fins acima indicados.

  • Anúncios e conteúdos personalizados, medição de anúncios e conteúdos, dados sobre o público-alvo e desenvolvimento de produtos

    Os anúncios e os conteúdos podem ser personalizados com base num perfil. Podem ser adicionados dados adicionais para uma maior personalização dos anúncios e dos conteúdos. A eficácia dos anúncios e dos conteúdos pode ser medida. Podem ser obtidas informações sobre o público que visualizou os anúncios e os conteúdos. Estes dados podem ser usados para desenvolver ou melhorar sistemas, softwares ou a experiência do utilizador.

Ao clicar em "Eu concordo”, permitirá o uso de cookies, identificadores do dispositivo e web beacons mencionados ou outras tecnologias semelhantes. As configurações do navegador do seu dispositivo podem ser alteradas.

Para certos fins, podem ser invocados interesses legítimos ao invés de consentimento. Pode ler mais informação sobre este assunto na nossa Política de Privacidade e Cookies.